Location: San Gennaro Vesuviano
(40.8833°N, 14.5333°E)
Time: 22:17:55
(UTC+00:00)

Cosmos 2278 Rocket - Pass Details

Date: 22 April 2021
Orbit: 842 x 844 km, 71.0° (Epoch: 10 May)

Event Time Altitude Azimuth Distance (km) Brightness Sun altitude
Exits shadow 23:19:32 21° 60° (ENE) 1,810 4.2 -36.4°
Drops below altitude 10° 23:21:45 10° 43° (NE) 2,468 5.1 -36.4°
Sets 23:24:26 0° 34° (NE) 3,407 6.1 -36.3°
